Simultaneous Nadir Overpasses (SNOs) Predictions

Prediction of SNOs between AQUA and GOES-15 Satellite Orbit:

Table of predicted SNOs for the next 14.0 days since TLE Epoch: 2/17/2012
Index Date Time (AQUA) AQUA Lat,Lon GOES-15 Lat,Lon Distance(km) Time Diff (sec)
1 02/18/2012 10:32:00 -0.19,-134.20 0.02,-135.31 126.52 80
2 02/18/2012 22:53:25 -0.88,-139.40 -0.02,-135.33 462.04 80
3 02/20/2012 10:19:50 -0.85,-131.25 0.02,-135.35 466.88 80
4 02/20/2012 22:41:15 -0.22,-136.45 -0.02,-135.37 121.69 80
5 02/22/2012 22:29:04 0.40,-133.49 -0.02,-135.41 218.66 80
6 02/23/2012 10:50:19 0.73,-138.64 0.02,-135.41 367.30 80
7 02/25/2012 10:38:08 0.09,-135.68 0.02,-135.44 27.46 80
8 02/27/2012 10:25:57 -0.57,-132.73 0.02,-135.47 312.14 80
9 02/27/2012 22:47:21 -0.54,-137.91 -0.02,-135.48 276.73 80
10 02/29/2012 22:35:09 0.08,-134.95 -0.02,-135.50 62.03 80




NCC Satellite Simultaneous Nadir Overpasses (SNOs) Prediction Service
